Hourly Weather Roundup
Issued by NWS Central Illinois

Home | Current Version | Previous Version | Text Only | Print | Product List | Glossary On
Versions: 1 2 3 4 5 6 7 8 9 10 11 12 13 14 15 16 17 18 19 20 21 22 23 24 25 26 27 28 29 30 31 32 33 34 35 36 37 38 39 40 41 42 43 44 45 46 47 48 49 50
000
NZUS43 KILX 211210
HWRILX

Area Weather Roundup
National Weather Service Lincoln IL
700 AM CDT THU SEP 21 2017

NOTE:  "FAIR" indicates few or no clouds below 12,000 feet, with
       no sigificant weather and/or obstructions to visibility.


CITY           SKY/WX    TMP DP  RH WIND       PRES   REMARKS
Bloomington    MOCLDY    70  69  97 S7        30.02S
6HR MIN TEMP:  70; 6HR MAX TEMP:  75;

Champaign      PTCLDY    71  68  90 S6        30.02S FOG
6HR MIN TEMP:  70; 6HR MAX TEMP:  76;

Danville       PTCLDY    67  67  99 S5        30.00S FOG
6HR MIN TEMP:  66; 6HR MAX TEMP:  72;

Decatur        MOCLDY    71  69  93 SW5       30.02R
6HR MIN TEMP:  69; 6HR MAX TEMP:  76;

Effingham      CLEAR     69  69 100 SE5       30.05R FOG
6HR MIN TEMP:  67; 6HR MAX TEMP:  76;

Flora          CLEAR     69  68  97 CALM      30.04S FOG
6HR MIN TEMP:  69; 6HR MAX TEMP:  74;

Galesburg      CLOUDY    71  64  79 SW5       30.03R
6HR MIN TEMP:  69; 6HR MAX TEMP:  73;

Jacksonville   MOCLDY    71  69  92 N5        30.01R
6HR MIN TEMP:  71; 6HR MAX TEMP:  78;

Lacon          CLOUDY    71  64  79 CALM      29.98S HAZE
6HR MIN TEMP:  70; 6HR MAX TEMP:  76;

Lawrenceville  FOG       69  69 100 SE3       30.05R VSB 1
6HR MIN TEMP:  69; 6HR MAX TEMP:  72;

Litchfield     CLOUDY    69  68  98 SE3       30.01S FOG
6HR MIN TEMP:  69; 6HR MAX TEMP:  73;

$$


CITY           SKY/WX    TMP DP  RH WIND       PRES   REMARKS
Lincoln        CLOUDY    70  70 100 CALM      30.01S FOG
6HR MIN TEMP:  70; 6HR MAX TEMP:  76;

Macomb         CLOUDY    69  65  88 CALM      30.04R
6HR MIN TEMP:  69; 6HR MAX TEMP:  76;

Mattoon        CLEAR     72  71  97 S8        30.02R
6HR MIN TEMP:  70; 6HR MAX TEMP:  76;

Mt Carmel AP   CLOUDY    67  66  96 SE3       30.05R FOG
6HR MIN TEMP:  66; 6HR MAX TEMP:  73;

Olney-Noble AP CLEAR     69  67  93 CALM      30.05R FOG
Paris AP       PTCLDY    70  69  98 S3        30.04R FOG
6HR MIN TEMP:  68; 6HR MAX TEMP:  72;

Peoria         CLOUDY    70  67  90 S5        29.99F
6HR MIN TEMP:  70; 6HR MAX TEMP:  77;

Pontiac        CLOUDY    71  71  99 W6        30.01R
6HR MIN TEMP:  71; 6HR MAX TEMP:  75;

Rantoul        CLOUDY    70  69  97 CALM      30.02S FOG
6HR MIN TEMP:  70; 6HR MAX TEMP:  76;

Robinson       CLEAR     65  65 100 CALM      30.05R FOG
6HR MIN TEMP:  64; 6HR MAX TEMP:  70;

Springfield    CLOUDY    72  71  97 CALM      30.00S
6HR MIN TEMP:  72; 6HR MAX TEMP:  79;

Taylorville    MOCLDY    70  69  98 SE5       30.01S
6HR MIN TEMP:  70; 6HR MAX TEMP:  75;

$$

...REGIONAL REPORTS...


CITY           SKY/WX    TMP DP  RH WIND       PRES   REMARKS
Chicago O`Hare CLOUDY    73  67  81 SE3       29.97R
Kankakee       CLOUDY    70  69  94 SE5       30.00S
Moline         LGT RAIN  70  62  76 W10       29.98F
Mount Sterling CLOUDY    71  69  92 N3        30.01R
Mount Vernon     N/A     70  69  97 CALM      30.04R
Pittsfield     CLOUDY    70  69  97 N3        30.01R
Quincy         CLOUDY    75  70  84 NE10      30.00R
Rockford       CLOUDY    70  68  93 N6        29.98R
$$


CITY           SKY/WX    TMP DP  RH WIND       PRES   REMARKS
Burlington     CLOUDY    69  67  93 NW3       30.01R THUNDER
Cedar Rapids   CLOUDY    68  66  93 S10G18    29.95S
Des Moines     CLOUDY    68  66  93 S3        29.91S
Kirksville     CLOUDY    73  70  90 NE15      29.98R
Ottumwa        TSTM      69  67  93 SE14G25   29.96R
St Louis       MOCLDY    75  70  84 S6        30.00R
$$


CITY           SKY/WX    TMP DP  RH WIND       PRES   REMARKS
Terre Haute    CLEAR     67  66  97 CALM      30.04R FOG
Evansville     PTCLDY    69  68  96 CALM      30.06R
Indianapolis   CLOUDY    70  69  97 SE6       30.07R
Lafayette      CLOUDY    69  69 100 CALM      30.03R
Madison        CLOUDY    68  68 100 CALM      29.98R FOG
Milwaukee      CLOUDY    73  67  81 W3        29.97S
$$






USA.gov is the U.S. government's official web portal to all federal, state and local government web resources and services.